Starlink 2346

operational
NORAD ID: 47887 Int'l Des: 2021-021 Owner: SPXS Country: US Constellation: starlink
LEOCIRCULARSTARLINK_TYPE

Starlink 2346について

説明を読み込み中...

リアルタイム位置

3D地球を読み込み中...

次回通過

高度履歴

Altitude vs Time

uPlot chart will show altitude changes over time

軌道要素

1 47887U 21021AD 26033.40516712 .00003145 00000-0 22991-3 0 9999
2 47887 53.0540 80.0201 0001336 96.7628 263.3513 15.06399596270730
Epoch: Feb 2, 2026 • Age: 15 hours

現在のステータス

高度 547.0 km
速度 7.59 km/s
衛星直下点 15.73°N, 100.38°E
打ち上げ日 Mar 14, 2021
運用期間 4.8 years
タイプ internet

技術仕様

分類 Payload
質量 260.00 kg
乾燥質量 248.00 kg
総質量 260.00 kg
長さ 0.20 m
直径 2.80 m
スパン 9.00 m
形状 Box + pan
製造者 SPXS
バスタイプ Starlink
フェーズステータス In Orbit
所有者/国 SPXS/US

大規模コンステレーション

Loading constellations...